{"data":{"norad_id":64448,"intl_designator":"2025-130L","name":"STARLINK-34433","alt_names":[],"object_type":"PAYLOAD","status":"ACTIVE","operator":null,"country":"US","launch_date":"2025-06-18","launch_site_code":"AFETR","launch_vehicle":null,"mission":null,"orbit_class":"UNKNOWN","rcs_meters":null,"size_class":null,"mass_kg":null,"dimensions":null,"purposes":["comms"],"wikipedia_slug":null,"has_3d_model":false,"image_url":null,"decayed_at":null,"tle_current":{"epoch":"2026-05-25T03:21:50.828832Z","epoch_age_seconds":66051,"freshness":"FRESH","line1":"1 64448U 25130L   26145.14017163  .00013792  00000+0  47669-3 0  9994","line2":"2 64448  53.1576  93.7372 0001212  84.8296 275.2843 15.30214607 52400","mean_motion":15.30214607,"eccentricity":0.0001212,"inclination_deg":53.1576,"raan_deg":93.7372,"arg_perigee_deg":84.8296,"mean_anomaly_deg":275.2843,"bstar":0.00047669,"rev_number":5240,"period_min":94.104447403174,"perigee_km":474.34083491234,"apogee_km":476.00207688205,"semimajor_km":6853.3084558972,"source":"CELESTRAK","updated_at":"2026-05-25T13:38:20.449391Z"}}}